Starlink 4213

operational
NORAD ID: 52872 Int'l Des: 2022-062 Owner: SPXS Country: US Constellation: starlink
LEOCIRCULAR

关于 Starlink 4213

正在加载描述...

实时位置

正在加载3D地球...

即将过境

高度历史

Altitude vs Time

uPlot chart will show altitude changes over time

两行轨道根数

1 52872U 22062AU 26062.14361295 .00001419 00000-0 10724-3 0 9995
2 52872 53.2185 43.4750 0001444 86.4963 273.6194 15.08840282205076
Epoch: Mar 3, 2026 • Age: 20 hours

当前状态

高度 541.6 km
速度 7.60 km/s
星下点 34.80°N, 88.59°E
发射日期 Jun 17, 2022
运行时间 3.7 years
类型 internet

技术详情

分类 Payload
质量 297.00 kg
干质量 275.00 kg
总质量 297.00 kg
长度 0.20 m
直径 2.80 m
跨度 9.00 m
形状 Box + pan
制造商 SPXS
平台类型 Starlink
阶段状态 In Orbit
所有者/国家 SPXS/US

大型星座

Loading constellations...